This demonstration page uses our WeatherBlox Daily Observations layout. Learn more.

Left ArrowRight Arrow

Hourly Observations for October 2, 2022

Temp ( °F °C ) Dew Point ( °F °C ) Humidity (%) Winds ( mph kmh ) Pressure ( in mb ) Visibility ( mi km ) Precip ( " mm )
12:56 am 00:56 Clear 57 13.9 41 5 55 55 SSE 6 9 30.13 1020 10 16 0.00 0.00
1:56 am 01:56 Clear 55 12.8 42 5.6 62 62 SSE 7 11 30.13 1020 10 16 0.00 0.00
2:56 am 02:56 Clear 56 13.3 42 5.6 60 60 SSE 10 17 30.14 1021 10 16 0.00 0.00
3:56 am 03:56 Clear 54 12.2 42 5.6 64 64 NW 8 13 30.18 1022 10 16 0.00 0.00
4:56 am 04:56 Clear 52 11.1 41 5 66 66 ESE 7 11 30.18 1022 10 16 0.00 0.00
5:56 am 05:56 Clear 48 8.9 41 5 76 76 ESE 8 13 30.19 1022 10 16 0.00 0.00
6:56 am 06:56 Clear 47 8.3 41 5 80 80 ESE 6 9 30.21 1023 10 16 0.00 0.00
7:56 am 07:56 Sunny 46 7.8 41 5 82 82 Calm 30.22 1024 10 16 0.00 0.00
8:56 am 08:56 Sunny 54 12.2 42 5.6 64 64 SE 10 17 30.21 1023 10 16 0.00 0.00
9:56 am 09:56 Sunny 63 17.2 42 5.6 46 46 SSE 15 24 30.21 1023 10 16 0.00 0.00
10:56 am 10:56 Sunny 70 21.1 40 4.4 33 33 S 15 24 30.21 1023 10 16 0.00 0.00
11:56 am 11:56 Sunny 76 24.4 40 4.4 27 27 S 15 24 30.21 1023 10 16 0.00 0.00
12:56 pm 12:56 Sunny 80 26.7 41 5 25 25 SSE 17 28 30.19 1022 10 16 0.00 0.00
1:56 pm 13:56 Sunny 81 27.2 41 5 24 24 S 21 33 30.17 1022 10 16 0.00 0.00
2:56 pm 14:56 Sunny 82 27.8 41 5 23 23 S 18 30 30.14 1021 10 16 0.00 0.00
3:56 pm 15:56 Sunny 82 27.8 41 5 23 23 SSE 20 31 30.14 1021 10 16 0.00 0.00
4:56 pm 16:56 Sunny 81 27.2 40 4.4 23 23 SSE 20 31 30.13 1020 10 16 0.00 0.00
5:56 pm 17:56 Sunny 79 26.1 38 3.3 23 23 SSE 17 28 30.14 1021 10 16 0.00 0.00
6:56 pm 18:56 Sunny 74 23.3 40 4.4 29 29 SSE 13 20 30.15 1021 10 16 0.00 0.00
7:56 pm 19:56 Clear 67 19.4 39 3.9 36 36 SE 9 15 30.17 1022 10 16 0.00 0.00
8:56 pm 20:56 Clear 66 18.9 39 3.9 37 37 SSE 12 19 30.17 1022 10 16 0.00 0.00
9:56 pm 21:56 Clear 62 16.7 40 4.4 44 44 SSE 10 17 30.17 1022 10 16 0.00 0.00
10:56 pm 22:56 Clear 60 15.6 40 4.4 47 47 SSE 13 20 30.17 1022 10 16 0.00 0.00
11:56 pm 23:56 Clear 62 16.7 41 5 46 46 SSE 14 22 30.15 1021 10 16 0.00 0.00

Powered by AerisWeather